GFSWCAN_925_thetae_159.txt.gz
Theta_e
303 307 310 312 313 316 317 318 318 318 317 316 314 312 310 310 309 310 311 314 315 319 319 320 320 320 321 320 323 323 327 323 315 318 317 319 320 321 324 323 322 321 324 326 326 331 333 331 334 336 331 331 334 333
304 309 312 313 314 315 316 317 316 316 315 313 311 310 310 311 311 311 311 314 312 314 317 318 317 317 319 320 320 320 323 324 323 319 317 318 322 317 321 328 322 322 321 324 324 326 325 327 330 328 327 330 332 331
306 309 313 314 315 315 315 315 314 313 312 311 310 310 310 310 310 310 310 311 312 314 316 316 317 316 316 317 318 319 320 323 319 318 319 318 321 317 320 323 325 324 320 321 324 324 324 326 328 329 329 330 331 332
307 310 313 314 314 313 313 312 312 311 311 311 310 310 309 309 309 309 309 311 310 313 319 317 316 316 315 318 318 317 316 318 315 318 321 319 319 314 318 320 322 323 319 322 323 327 328 328 329 329 331 331 328 333
307 311 313 313 313 312 311 310 310 310 309 309 309 309 308 309 309 309 309 309 309 312 318 318 315 316 317 315 316 317 316 317 317 319 320 319 318 317 313 314 319 319 318 322 328 325 326 326 328 328 331 331 328 332
307 311 312 312 312 311 310 310 309 309 309 308 309 308 308 308 309 309 311 313 312 313 317 319 315 316 317 315 313 317 320 319 316 320 320 321 320 317 318 321 318 318 317 316 322 322 322 325 327 327 328 329 327 329
306 310 311 311 310 310 309 309 307 307 307 307 307 308 308 308 309 309 311 314 313 314 317 321 320 320 321 318 315 315 321 319 318 318 320 322 321 319 318 321 320 320 321 323 321 323 326 325 327 326 326 326 327 331
305 307 310 309 309 309 309 308 308 307 306 306 307 308 308 308 308 308 311 312 311 312 315 321 322 321 320 320 320 315 317 321 320 320 320 324 321 318 322 320 321 321 319 323 322 321 322 321 320 321 323 328 331 333
306 307 309 308 307 306 306 308 307 306 306 306 307 308 308 308 307 312 314 315 312 314 319 322 325 328 321 322 319 319 318 320 317 320 321 323 324 323 320 322 322 320 320 321 319 321 319 319 319 321 330 330 331 333
304 306 306 305 305 305 306 307 306 306 305 307 308 310 312 312 315 314 314 314 313 314 315 319 318 323 318 321 325 323 321 322 324 322 321 323 324 321 319 321 320 318 317 318 320 321 321 319 318 321 329 331 332 332
303 304 305 304 304 304 305 305 305 305 306 309 310 313 313 315 314 314 320 318 316 319 317 318 318 322 316 325 327 324 323 322 325 324 325 323 323 323 322 320 317 316 317 318 318 318 317 318 318 319 322 328 330 331
304 304 304 304 303 304 305 305 305 305 309 309 309 310 312 314 313 317 322 321 320 320 319 320 318 318 317 324 329 327 328 324 327 325 325 326 322 318 320 322 321 318 318 319 318 318 319 319 318 318 319 326 329 331
303 303 303 303 304 305 305 305 305 305 307 309 311 314 318 316 317 323 323 323 323 324 325 324 322 318 323 325 328 329 330 330 325 328 329 324 319 321 318 321 323 320 321 322 322 321 321 321 322 320 319 324 328 329
303 303 303 304 305 305 305 305 305 305 307 310 316 314 317 320 318 317 323 324 322 323 323 323 323 322 324 325 326 330 329 329 330 330 329 324 323 327 326 322 321 322 322 324 324 322 320 320 321 322 321 322 327 328
304 305 305 305 305 305 305 304 305 306 308 314 315 315 315 315 316 319 319 321 322 320 320 322 324 325 325 327 326 327 330 332 329 328 323 319 326 326 328 329 327 324 322 320 321 321 320 321 321 322 323 322 327 328
304 304 304 305 305 305 305 305 306 308 310 314 313 317 315 316 317 317 318 319 320 321 322 321 325 328 328 327 329 329 329 329 326 326 327 325 323 322 323 327 327 328 328 327 326 321 320 319 322 323 324 322 326 329
303 305 307 307 307 306 306 307 307 310 312 315 315 314 315 315 317 319 319 319 317 321 325 322 326 327 326 327 327 325 327 327 326 327 324 323 323 322 322 324 325 326 327 328 329 328 323 321 323 323 320 323 327 329
305 308 307 306 306 305 306 307 311 314 315 313 313 313 314 315 316 317 317 316 316 319 320 323 323 324 326 328 327 324 323 322 322 323 320 318 318 318 321 321 324 326 326 327 328 328 328 325 322 321 323 326 328 328
307 309 308 307 308 310 308 308 309 313 313 313 311 311 312 313 312 312 312 312 314 316 317 319 320 322 321 320 323 322 324 323 325 321 320 318 320 322 321 323 322 321 324 325 326 325 327 328 326 325 324 328 329 329
307 307 309 308 309 310 313 312 312 312 315 312 311 313 313 314 313 313 313 312 312 317 319 320 318 317 319 319 319 320 320 320 321 320 321 320 319 319 320 321 321 322 324 324 324 324 324 326 327 325 325 330 331 330
307 307 308 309 309 309 309 311 316 315 314 314 313 313 313 311 313 313 313 311 313 314 317 317 318 314 312 317 320 320 319 319 319 319 320 320 320 319 319 321 322 323 322 322 321 322 323 323 326 327 326 326 331 331
309 309 309 308 308 311 309 310 310 310 312 311 312 310 313 313 314 313 311 314 314 313 312 311 312 312 312 315 317 319 320 321 321 321 322 320 319 318 318 322 323 321 321 323 322 322 323 324 325 326 326 326 328 331
308 309 310 310 312 309 308 309 311 310 313 314 315 319 318 319 318 317 318 314 314 312 312 311 312 313 312 315 316 321 322 321 318 319 320 319 318 319 320 323 324 322 318 319 323 323 323 323 324 325 325 326 327 326
308 308 312 313 310 308 308 311 310 313 315 317 320 322 322 320 319 323 324 324 323 319 316 315 312 314 316 317 317 317 320 322 321 319 319 318 317 319 322 323 322 321 321 322 323 323 323 323 322 323 323 322 323 323
309 304 306 305 307 313 315 314 314 317 320 320 322 322 321 320 323 326 326 324 317 319 320 319 318 321 322 322 321 320 321 319 319 318 321 321 320 320 321 322 320 319 320 322 322 323 322 322 321 322 322 323 322 323
308 306 306 314 311 313 313 318 320 321 322 324 324 322 322 323 326 325 322 318 319 322 320 319 321 321 322 321 320 318 321 322 321 318 322 322 322 321 319 316 315 318 322 323 322 321 321 320 320 319 318 317 317 316
308 307 307 306 312 314 316 317 318 319 321 325 319 323 324 325 325 322 319 318 320 321 322 323 322 320 319 319 322 322 320 322 322 321 322 323 323 322 321 318 317 321 322 322 322 321 320 319 318 317 316 316 315 315
307 307 310 310 312 313 317 318 320 323 323 318 321 324 324 324 325 322 321 321 322 321 322 321 322 323 323 323 323 321 321 322 322 322 322 322 321 321 322 321 321 321 321 321 321 320 319 321 320 319 318 318 317 316
308 308 309 311 313 314 318 319 321 321 317 319 321 322 323 322 319 318 319 323 322 321 319 317 320 320 323 324 323 323 322 321 320 320 318 314 315 319 320 319 320 320 320 319 320 320 321 319 318 317 318 319 317 317
309 308 312 314 318 320 321 320 321 317 316 317 317 317 317 316 320 322 322 322 322 321 321 320 321 320 319 319 319 322 323 323 320 319 317 315 317 320 319 319 319 319 319 319 319 318 319 319 318 318 317 317 318 318
312 314 315 318 320 319 320 317 317 317 318 317 316 317 318 317 319 320 320 320 320 318 316 315 316 319 320 320 316 318 319 322 319 320 320 320 320 320 320 320 319 319 317 315 312 313 315 316 316 316 317 318 318 318
314 317 318 321 320 316 319 320 320 321 320 319 319 318 318 319 320 315 319 319 318 315 317 316 316 315 317 318 319 320 322 319 317 316 317 317 317 318 318 318 317 316 316 317 313 313 314 315 315 315 315 315 315 315
314 318 317 317 318 321 320 321 322 322 321 321 319 319 320 319 320 315 317 318 318 319 318 316 315 316 318 320 321 321 321 320 320 319 317 318 318 318 317 316 317 317 317 314 315 314 314 316 315 315 315 314 314 315

GFSWCAN_925_thetae_162.txt.gz
Theta_e
304 303 305 308 311 312 313 316 317 317 317 317 316 314 312 310 310 310 311 312 314 318 317 320 321 321 319 319 318 319 324 324 320 318 318 319 318 320 321 320 321 322 323 324 324 327 326 326 333 334 328 329 332 333
304 303 307 309 312 314 313 315 316 316 316 315 313 311 310 310 311 310 310 313 312 310 313 316 315 317 319 319 317 318 322 323 322 319 315 316 320 317 322 326 319 322 318 321 323 324 322 326 329 327 326 328 332 332
303 303 307 310 313 314 315 315 314 314 313 312 311 310 310 310 310 310 310 310 311 312 313 314 316 316 316 315 315 318 317 322 319 315 317 317 320 315 323 322 324 322 318 320 322 322 321 323 324 328 327 329 331 330
304 304 308 311 313 313 313 312 312 311 311 311 310 310 309 309 309 309 309 310 310 310 316 315 315 315 315 315 316 316 316 317 316 315 319 319 318 313 317 319 321 321 320 321 321 323 325 325 326 328 331 330 332 330
304 304 308 312 313 312 312 311 310 310 310 310 309 309 309 309 308 309 309 309 309 310 316 314 314 315 316 315 316 316 316 317 315 316 318 323 315 317 312 314 319 319 318 323 324 323 323 323 325 327 331 330 332 333
304 304 309 311 312 311 311 310 309 309 309 309 308 308 309 308 308 309 306 312 310 308 315 319 314 315 316 315 315 316 316 317 316 316 319 318 317 315 317 317 316 314 313 318 323 321 323 324 326 327 329 328 330 333
304 304 308 310 310 310 310 309 308 307 307 307 307 307 308 308 308 308 308 313 312 311 317 318 318 316 320 314 312 316 318 317 318 319 319 321 320 315 317 319 318 318 317 317 320 322 326 326 328 326 327 328 328 332
304 304 306 309 309 309 309 309 308 308 306 306 307 307 307 308 308 307 311 312 312 309 314 319 320 320 320 320 318 315 318 319 318 318 319 321 319 317 321 318 319 320 320 322 321 322 323 321 323 325 323 325 329 330
304 304 306 308 308 306 306 307 308 307 306 306 306 307 308 307 306 311 314 314 311 311 318 320 324 325 320 321 319 317 315 322 317 320 321 321 322 323 321 320 320 319 323 323 321 320 319 322 322 323 325 326 326 330
304 304 307 307 305 304 305 305 306 306 305 306 307 308 311 311 314 313 314 314 313 313 314 318 316 322 318 317 324 322 319 320 324 322 322 324 322 320 319 318 318 318 318 318 321 322 320 319 319 321 326 326 328 329
304 303 304 305 304 304 304 305 305 305 306 308 310 311 313 314 314 312 318 318 316 318 316 316 316 321 316 323 326 325 325 321 323 323 324 322 322 322 321 321 318 316 316 318 320 320 319 318 317 319 324 328 328 331
304 304 304 304 304 303 304 305 305 305 308 308 307 309 311 313 313 315 320 320 319 320 317 321 319 319 320 321 328 328 328 323 327 323 323 325 322 320 319 321 322 318 317 317 317 318 318 318 317 317 321 327 329 331
304 303 303 303 303 303 304 305 305 305 306 308 310 314 316 316 317 322 323 323 324 323 323 323 324 318 319 324 327 328 330 329 325 328 328 324 320 323 324 318 321 319 318 318 319 319 318 319 319 318 318 325 328 329
303 303 303 303 304 305 305 305 305 305 306 309 315 312 318 318 318 317 321 322 322 322 323 323 321 322 321 323 327 329 327 328 331 330 329 323 324 325 325 323 321 322 320 320 321 321 321 320 319 320 319 320 327 328
303 304 304 305 305 305 305 305 304 305 307 312 315 316 315 313 315 318 318 320 321 320 321 321 321 323 325 326 326 325 329 329 331 329 323 322 322 320 326 327 324 321 320 321 321 322 322 321 320 320 321 320 324 328
304 304 304 304 304 304 305 304 305 306 309 312 312 314 314 315 315 314 316 318 318 321 320 319 324 325 325 325 327 328 328 328 326 326 327 323 322 323 324 324 325 325 326 326 325 322 319 319 319 320 321 321 323 327
303 304 307 306 306 305 305 306 306 309 311 313 314 311 312 313 316 316 319 319 318 318 323 322 324 327 325 325 326 326 327 327 326 327 324 323 322 320 320 322 323 325 325 325 327 327 326 321 319 321 321 321 322 325
304 307 307 307 306 305 306 307 310 312 313 312 313 311 311 313 314 316 317 315 316 317 320 323 320 326 328 328 328 325 324 323 322 323 320 319 319 318 319 320 321 321 322 323 324 325 326 324 323 322 322 321 321 325
306 307 307 306 306 308 306 307 307 311 312 311 310 309 310 311 310 312 312 310 311 314 315 319 320 321 321 321 325 324 323 323 323 320 320 318 318 319 319 321 319 320 322 322 322 322 323 324 325 325 324 323 324 325
306 307 308 307 307 310 312 312 309 311 313 311 309 310 310 312 311 311 312 311 311 314 318 319 317 316 319 320 319 320 319 319 320 320 321 319 318 316 318 318 318 319 321 321 322 323 323 323 325 325 324 324 325 326
307 307 308 309 309 309 309 311 314 314 313 312 311 311 312 309 311 312 312 309 311 312 314 314 315 314 311 313 317 317 317 317 318 319 320 319 318 318 318 320 320 322 320 319 319 320 320 321 322 323 324 324 325 327
309 308 308 308 308 310 311 308 308 308 309 310 310 309 311 312 313 313 311 313 313 312 310 310 311 313 312 313 317 318 317 317 318 319 319 319 318 317 317 317 321 320 319 318 319 320 321 322 322 322 323 324 324 327
308 308 309 309 311 310 309 307 311 309 312 311 313 318 318 318 318 315 319 314 315 314 311 310 310 311 311 312 313 314 316 319 316 317 318 318 319 318 317 319 321 321 319 320 320 321 321 322 322 322 322 324 324 323
308 308 311 313 312 308 307 309 308 311 313 317 320 321 321 320 318 322 325 323 322 317 316 315 311 311 313 314 313 314 317 319 319 319 318 317 316 317 318 320 322 321 320 320 321 320 321 321 321 321 321 322 323 324
309 305 306 305 306 312 315 314 312 314 319 320 321 321 321 319 322 324 325 324 318 319 320 319 317 317 319 319 318 317 319 318 317 318 319 319 319 318 318 319 319 319 319 320 320 321 321 321 320 320 320 322 322 322
309 306 305 312 310 311 312 317 318 320 320 322 323 321 322 322 326 325 322 318 319 321 322 322 321 320 321 320 320 319 320 320 319 318 319 320 319 318 318 317 316 317 321 322 321 321 319 319 318 318 319 320 319 317
308 306 305 304 309 312 314 316 317 319 320 323 318 322 324 324 324 322 320 319 319 321 321 321 320 318 317 317 319 319 319 320 320 319 321 321 321 321 319 317 318 321 322 321 320 320 319 318 317 316 316 315 315 315
308 306 308 307 308 310 315 317 319 322 322 319 321 323 324 323 323 321 320 320 321 321 320 320 320 319 322 321 320 321 321 322 322 321 321 321 321 321 321 320 320 320 320 321 320 320 319 319 319 318 317 317 316 316
307 306 307 309 310 312 316 319 320 320 318 319 321 321 322 321 319 318 319 320 321 320 318 317 318 322 322 322 322 321 320 319 319 318 317 317 317 319 319 319 320 319 319 319 320 319 317 316 316 318 318 317 316 317
307 305 308 311 315 317 318 319 320 318 316 317 318 318 318 318 320 321 320 320 318 317 318 318 319 319 318 318 316 319 319 319 319 317 315 316 318 318 318 319 319 319 318 318 318 319 319 318 317 317 317 317 318 318
307 310 313 315 319 318 318 316 316 316 318 318 317 318 319 318 318 319 319 318 316 315 315 315 316 318 319 318 317 317 317 319 320 319 319 319 319 318 318 319 318 317 314 312 314 316 316 316 316 316 317 317 317 317
312 315 319 319 319 315 318 319 319 319 317 318 318 316 317 317 318 314 317 317 316 315 314 314 315 314 315 317 320 320 316 317 317 318 317 318 318 317 317 316 316 316 316 313 312 313 314 314 314 315 315 316 316 316
314 317 317 316 316 320 319 320 321 320 318 318 318 319 318 318 319 314 316 317 317 317 316 315 316 318 319 319 320 320 318 317 316 316 316 317 317 317 317 316 316 317 317 313 314 313 314 316 315 315 314 314 314 314

GFSWCAN_925_thetae_165.txt.gz
Theta_e
305 304 304 304 307 311 312 313 314 316 316 317 316 315 313 311 310 310 311 311 314 318 318 318 320 322 321 321 323 321 321 327 330 325 326 326 327 326 329 329 331 333 333 333 332 333 328 329 335 338 336 335 335 338
304 304 304 305 309 312 314 314 314 316 315 315 314 312 310 310 311 311 310 312 312 314 316 314 315 316 318 319 320 321 324 322 321 328 324 323 325 326 331 330 325 330 329 331 331 328 331 333 334 333 333 334 337 338
303 303 304 306 309 312 313 313 314 313 313 312 311 310 310 310 310 310 310 310 310 313 314 314 317 315 315 314 317 319 319 319 322 318 321 324 332 326 330 330 331 326 324 330 330 329 327 327 332 331 332 333 335 336
303 304 304 306 310 312 313 312 312 311 311 311 311 310 310 310 309 309 309 309 310 311 314 315 314 315 315 315 315 315 317 319 320 319 319 325 326 320 328 330 331 328 327 331 330 330 330 329 329 330 335 334 334 333
303 304 303 307 311 312 312 311 310 310 310 309 310 310 309 309 309 308 308 310 309 311 314 315 314 315 315 315 316 315 316 317 320 321 320 328 321 322 320 326 329 327 332 330 328 334 335 333 330 333 335 336 334 335
303 304 303 307 311 311 311 310 310 309 308 308 308 308 308 309 309 308 311 311 311 309 313 319 316 317 317 317 316 316 317 318 318 321 320 324 321 322 328 331 328 327 326 331 334 331 332 331 331 333 335 335 333 335
303 304 304 307 310 310 310 310 309 309 308 307 307 307 307 308 308 309 311 312 310 309 315 318 318 317 318 315 316 317 318 319 320 320 325 325 326 323 326 330 331 326 325 324 327 329 332 332 334 333 334 332 333 333
303 304 304 306 309 309 309 308 308 309 308 307 306 306 307 307 308 308 311 311 310 311 313 318 318 321 319 323 319 319 320 321 323 324 323 326 325 325 331 331 325 326 325 325 326 330 331 333 333 333 333 332 337 337
303 304 304 306 307 307 306 307 308 308 307 307 306 307 307 307 308 310 313 314 311 311 317 320 322 320 316 320 321 319 321 323 323 328 327 328 329 337 333 332 328 328 330 330 328 327 328 332 334 333 333 333 334 336
303 304 304 307 306 304 304 305 306 306 306 306 306 309 314 309 314 313 312 314 312 313 314 317 317 321 318 320 321 326 322 325 326 327 329 330 330 329 328 327 331 329 328 328 329 329 327 329 331 333 333 332 332 334
304 304 304 304 305 304 303 304 305 305 306 307 310 313 312 313 314 315 317 319 317 318 317 317 317 320 319 320 323 329 332 325 328 328 330 333 332 333 331 329 327 325 325 328 329 332 331 330 330 330 331 332 331 331
304 304 304 304 304 303 303 304 305 305 307 307 307 308 310 314 315 316 320 321 319 321 318 320 321 319 321 319 329 331 332 328 331 327 328 331 331 332 330 330 330 327 325 323 324 325 326 327 326 328 329 331 331 332
305 303 303 303 303 303 303 304 305 305 305 307 309 313 316 317 318 320 322 324 323 323 323 323 324 324 319 323 326 330 331 332 328 331 332 330 327 332 333 332 328 326 325 324 324 323 322 323 323 324 326 327 330 333
303 302 302 303 303 303 305 305 305 305 306 311 314 313 317 319 319 319 321 322 322 322 322 322 323 326 325 325 326 328 327 329 333 334 332 331 331 330 332 330 329 327 326 326 325 325 325 325 325 325 324 325 329 332
302 303 303 304 304 305 305 305 305 305 308 312 314 316 317 316 316 318 319 321 322 322 322 323 324 325 326 326 327 326 327 328 330 332 328 331 328 330 332 333 330 327 326 327 326 325 327 327 326 326 325 325 326 330
304 304 304 304 304 305 305 305 305 305 308 311 312 315 317 319 320 318 318 320 319 323 323 322 326 326 326 326 325 328 328 327 328 330 332 330 330 329 330 331 331 332 333 332 328 326 325 326 327 327 325 325 325 329
303 304 307 306 304 304 305 305 306 308 311 312 313 314 315 316 316 316 320 319 318 321 325 325 325 326 325 325 326 326 329 331 332 330 328 327 328 328 328 329 329 330 331 330 331 331 330 325 323 325 329 328 325 327
305 307 307 307 305 305 305 306 309 312 313 313 315 314 314 316 317 317 318 318 318 320 322 325 322 326 327 326 326 326 329 327 328 328 326 325 325 325 324 327 326 327 328 328 328 329 329 331 331 330 329 327 326 326
305 307 307 306 306 306 307 308 308 313 314 314 314 314 314 315 316 316 316 316 316 317 321 323 325 324 325 325 325 327 327 328 329 327 326 324 322 324 324 325 324 325 326 326 326 327 326 326 327 328 328 327 328 328
306 307 307 306 307 309 312 313 309 311 314 315 313 315 315 316 316 316 317 316 316 319 323 322 321 321 324 326 324 324 326 324 326 326 326 325 322 322 323 323 324 324 325 324 324 323 323 324 326 326 326 327 328 329
307 307 308 308 308 308 310 311 313 315 316 317 316 315 317 315 316 317 317 313 316 318 318 319 320 321 318 318 319 321 323 323 325 326 326 326 324 323 323 324 324 325 325 323 324 323 323 323 323 324 324 326 328 328
308 307 308 308 309 310 310 310 311 312 313 315 314 315 317 317 317 316 315 317 318 318 317 317 317 318 319 319 320 320 321 320 321 322 319 320 324 324 324 322 323 325 325 324 323 324 324 324 323 323 324 325 327 327
308 308 308 309 310 310 311 309 315 314 316 316 317 320 320 319 318 316 320 319 318 317 316 316 318 317 317 316 316 317 317 319 320 320 322 322 322 323 323 322 324 327 327 325 324 324 323 322 323 323 324 326 324 325
308 309 311 313 311 311 311 313 312 314 316 318 320 320 320 321 320 322 320 321 323 322 321 322 321 319 317 317 318 318 318 319 320 322 321 321 322 324 322 322 323 324 323 322 321 323 324 324 322 323 324 325 324 328
309 308 308 307 310 314 316 315 315 315 317 318 318 320 322 321 323 324 323 324 320 321 323 322 322 321 320 321 321 320 319 319 320 322 322 321 323 323 323 322 322 322 320 320 321 322 324 323 323 323 323 324 326 325
309 308 308 312 313 313 314 316 318 319 319 321 322 321 322 324 325 325 324 321 321 321 323 323 324 324 323 322 324 324 322 320 320 322 320 319 321 322 324 324 323 322 322 322 322 321 321 321 321 321 322 320 321 324
309 309 308 307 310 312 316 316 317 319 320 322 322 323 324 324 324 324 321 320 321 321 321 322 322 323 323 322 321 321 320 320 321 322 321 321 320 319 320 321 322 323 322 321 321 320 319 319 319 319 319 319 319 320
310 309 310 311 312 313 316 316 319 321 322 321 322 323 323 323 325 322 321 320 320 320 319 320 320 321 323 322 321 322 322 321 321 321 321 321 320 320 321 320 320 320 320 320 321 320 319 318 317 317 317 317 316 316
309 309 310 311 312 314 317 318 319 320 321 320 322 322 323 322 320 321 322 321 322 322 322 322 321 321 322 322 322 321 321 321 322 324 323 322 322 321 320 321 320 319 319 319 317 318 318 319 318 317 317 315 313 312
309 308 311 312 316 318 318 318 321 320 317 318 319 321 322 323 321 320 321 321 321 321 321 322 322 322 320 318 319 321 320 320 320 321 322 320 320 320 320 320 320 319 318 319 319 318 318 318 318 317 316 314 313 313
309 311 313 314 318 320 320 318 319 318 320 320 319 320 323 323 321 318 319 319 316 316 318 320 320 321 321 318 316 317 320 320 320 320 320 319 319 320 320 320 319 317 315 315 317 317 317 318 318 319 318 318 317 317
311 313 318 319 320 318 319 321 321 321 321 321 322 322 323 323 322 321 318 318 318 317 315 317 318 317 316 318 318 317 318 319 320 320 320 320 320 319 319 318 317 317 315 313 314 315 316 316 317 318 318 319 319 319
314 317 317 318 319 320 320 321 323 322 322 323 323 323 324 324 321 320 315 316 318 317 317 316 316 317 318 319 319 317 317 316 316 316 316 317 317 318 318 317 317 317 318 315 316 315 317 317 317 316 316 316 316 315

GFSWCAN_925_thetae_168.txt.gz
Theta_e
305 305 304 304 304 307 310 313 313 313 317 316 317 316 315 313 311 311 316 314 317 321 322 321 321 324 324 324 325 325 325 326 330 329 330 332 330 330 330 331 333 332 332 331 331 333 332 331 335 334 339 337 337 336
305 304 304 304 304 308 311 313 314 315 315 315 315 314 312 311 311 311 315 313 313 316 320 318 317 319 319 320 323 324 326 327 326 331 331 331 330 330 331 334 332 332 331 332 332 332 335 333 335 336 336 336 337 339
304 304 303 304 305 309 312 313 313 313 313 313 312 311 311 310 310 311 314 313 314 316 317 318 319 317 317 316 317 323 325 323 323 322 326 329 333 330 331 330 330 331 332 330 335 332 332 334 335 335 335 335 337 338
303 303 304 304 305 309 312 312 312 311 311 311 311 311 310 310 310 310 312 313 313 314 317 316 315 315 316 316 317 317 321 321 322 322 326 328 331 327 331 331 332 332 332 332 333 335 334 332 334 334 337 336 337 339
303 303 304 304 306 310 312 312 311 310 310 310 310 310 310 310 309 309 312 311 311 314 317 317 315 318 317 318 317 318 318 319 322 323 326 329 329 325 326 332 331 333 332 334 329 334 331 333 333 336 337 337 336 337
303 303 304 304 306 311 311 311 310 309 309 308 308 308 308 309 309 311 315 312 309 311 315 319 317 318 319 321 319 319 319 319 320 322 323 323 324 326 329 330 330 332 333 331 330 333 329 332 334 336 336 336 336 338
302 303 304 304 306 310 310 310 310 309 308 308 307 306 307 308 308 313 316 312 310 310 314 318 320 317 318 320 319 320 318 320 321 322 322 325 327 326 329 331 331 332 332 334 334 336 336 335 336 336 336 335 335 335
302 303 304 304 306 309 309 309 308 308 309 308 307 306 307 307 308 311 312 309 310 312 314 321 320 320 316 322 323 320 323 322 322 322 323 327 328 328 332 331 332 333 332 332 335 332 332 335 336 336 335 336 336 335
302 303 304 304 307 307 306 306 307 308 308 307 306 307 308 309 312 314 312 312 309 312 318 320 322 322 315 319 320 322 322 325 322 322 325 329 330 333 333 334 333 333 333 332 332 332 333 336 337 337 335 337 338 337
302 303 304 304 308 305 304 304 305 306 306 306 306 310 316 314 313 313 313 315 312 312 313 317 317 320 317 321 320 324 323 322 325 324 325 329 331 331 332 332 332 333 332 332 332 333 333 334 337 336 335 334 335 338
302 304 304 304 305 305 303 303 305 305 306 307 310 314 313 313 314 316 319 320 318 319 317 318 318 321 319 320 322 323 330 326 325 328 329 331 332 332 333 333 333 331 332 332 331 331 331 330 333 334 334 333 332 333
303 304 304 304 304 304 303 303 304 306 307 307 307 309 313 316 318 319 321 322 320 321 321 321 320 319 322 319 322 326 332 329 330 328 330 333 334 336 335 333 333 332 330 330 330 331 330 330 330 331 333 334 332 332
304 305 303 303 303 303 303 303 305 305 306 309 311 314 316 318 321 321 321 323 323 323 323 323 324 323 322 321 324 329 333 332 330 332 329 333 335 336 339 337 334 332 330 330 328 329 328 330 330 330 331 331 332 334
304 303 302 302 303 303 303 305 305 305 308 312 315 317 318 320 320 319 320 323 322 323 323 322 323 325 324 323 323 327 329 330 334 333 331 336 337 337 337 335 334 335 331 330 330 329 329 330 330 329 329 330 331 333
302 302 303 304 303 304 305 305 305 307 309 313 315 320 318 318 319 320 320 320 323 322 323 325 326 326 324 324 326 327 328 331 333 333 333 336 336 337 337 336 334 332 331 331 331 330 330 329 330 331 330 330 330 332
304 304 305 304 304 305 305 305 306 308 309 311 313 317 318 320 321 320 319 320 321 324 323 325 327 327 326 326 326 328 329 330 331 335 334 334 334 335 336 336 336 336 335 333 331 330 330 330 332 332 331 330 330 331
303 304 306 306 304 305 305 307 308 309 311 313 316 315 316 319 320 318 320 320 319 321 325 326 327 328 325 327 327 326 330 334 334 334 332 332 332 332 333 332 333 333 334 334 335 335 332 329 329 331 334 333 331 331
305 307 307 305 305 305 306 307 310 313 313 315 316 315 316 317 318 318 317 319 319 320 322 325 324 326 327 327 327 327 328 331 332 329 329 328 329 330 329 331 331 331 331 332 331 331 332 334 334 334 334 333 331 331
306 307 307 306 307 308 310 310 310 314 315 315 316 316 317 317 317 318 319 319 320 320 321 322 325 326 327 323 325 327 329 331 331 331 328 328 328 329 330 329 329 329 328 328 327 327 328 331 330 330 330 330 330 330
305 307 306 306 306 309 312 313 311 314 315 316 316 317 318 318 318 319 319 319 320 321 321 321 321 321 324 328 325 326 327 326 329 329 329 326 325 327 328 328 327 328 326 325 325 323 324 324 325 325 326 327 329 329
307 307 308 307 309 310 312 313 314 316 318 319 319 319 318 318 319 319 319 318 319 319 320 319 319 319 321 322 322 323 324 326 324 326 327 331 327 325 325 325 325 324 325 324 325 324 325 325 325 324 324 324 327 329
308 307 309 309 311 311 312 312 314 314 315 316 317 317 319 320 320 320 319 320 321 321 321 321 320 320 321 321 321 322 322 323 323 323 321 323 325 325 325 324 324 325 325 326 325 325 325 325 324 323 324 325 326 329
308 308 310 310 311 312 313 313 316 317 318 317 318 320 321 321 320 317 322 321 321 320 320 322 323 324 325 324 323 321 322 323 323 322 322 322 323 323 323 323 324 326 324 325 326 325 325 324 325 325 324 325 328 328
308 310 312 313 313 314 314 316 315 316 317 318 319 320 320 322 321 320 321 321 323 322 323 325 325 326 323 323 323 322 320 319 319 320 321 322 321 322 324 323 323 324 326 326 325 325 325 325 325 325 325 326 327 328
310 309 311 312 313 315 316 317 316 316 317 316 318 319 321 320 322 323 323 324 322 323 323 323 325 326 324 325 323 321 321 319 319 319 320 321 321 322 323 324 326 325 324 325 323 323 324 324 325 325 325 326 327 327
308 311 311 313 314 315 315 317 317 318 318 320 321 321 322 325 325 325 324 323 323 322 324 325 325 325 327 325 326 327 325 324 324 323 324 323 323 324 324 324 326 325 324 323 323 323 322 323 323 323 322 322 322 324
311 312 312 310 312 314 316 317 316 318 320 322 323 324 324 324 325 324 323 322 324 324 324 324 326 326 327 326 325 325 325 325 325 325 324 323 321 321 323 322 323 322 322 322 322 322 321 320 320 320 320 320 321 322
310 311 312 313 314 315 316 317 318 321 322 322 322 323 325 325 324 323 322 322 323 324 323 323 323 323 324 324 324 324 324 324 323 323 322 322 323 323 322 321 320 319 319 320 320 320 320 319 318 317 317 317 317 317
311 311 312 313 313 314 316 318 319 320 320 321 323 324 325 325 325 325 324 324 324 324 321 320 321 320 320 322 323 323 323 323 324 324 322 322 322 321 320 319 319 319 318 318 317 318 319 318 317 316 315 314 313 311
311 310 313 314 316 317 319 318 321 321 320 321 322 324 326 325 324 323 324 323 323 321 321 320 318 316 316 318 321 322 322 322 322 320 320 320 319 319 319 318 318 319 319 319 319 318 318 318 317 316 316 315 315 315
312 313 314 316 319 320 320 321 322 321 321 323 323 325 323 324 322 322 322 321 320 321 321 320 319 318 316 317 317 320 322 321 320 319 318 318 318 318 318 318 318 317 317 318 319 319 319 319 319 319 318 318 318 318
312 315 318 320 321 320 321 322 324 324 323 325 325 324 324 322 321 320 320 318 317 318 318 319 319 319 317 317 317 318 319 319 319 319 318 317 317 317 317 317 317 316 316 316 317 318 318 318 318 319 319 319 319 319
315 318 318 319 321 322 322 323 324 324 324 323 323 323 322 319 319 320 319 319 316 316 317 318 321 322 322 319 319 318 318 318 315 315 315 316 317 318 318 317 317 318 317 317 317 318 318 318 317 318 318 318 318 318

GFSWCAN_925_thetae_171.txt.gz
Theta_e
304 304 305 305 304 304 306 310 314 315 314 316 316 317 316 315 313 313 319 319 320 323 324 323 324 326 326 327 329 327 329 330 327 330 330 330 332 333 335 335 334 335 334 333 332 334 334 333 332 332 337 336 337 337
304 305 305 304 304 305 308 311 313 314 314 314 315 314 313 312 311 311 316 318 318 319 322 320 321 320 321 323 325 326 328 330 330 331 330 330 331 333 335 336 333 336 333 333 332 339 335 332 332 333 334 334 334 336
304 305 304 304 304 304 307 312 313 312 313 312 312 311 311 311 311 311 314 316 316 319 321 321 322 320 319 318 318 323 326 326 328 327 330 334 337 334 334 340 335 334 335 334 333 333 333 331 334 333 333 331 335 338
305 304 303 304 304 304 308 312 312 311 311 311 311 311 311 311 310 310 313 315 316 317 320 320 317 318 317 318 319 319 321 323 326 327 328 330 334 332 334 333 334 335 335 333 332 334 332 331 333 333 333 333 337 340
305 303 303 304 304 305 309 312 311 311 310 310 310 310 310 310 310 310 311 314 315 316 320 319 316 318 319 319 320 320 320 322 325 327 328 329 330 332 332 331 332 335 338 333 333 336 334 333 332 331 332 335 337 340
303 303 303 304 304 306 310 311 311 310 309 308 308 308 308 309 309 311 317 316 315 313 317 318 317 319 320 322 323 321 322 323 323 326 326 327 329 329 332 334 332 328 333 331 332 334 332 333 330 331 332 334 336 339
303 303 303 304 304 305 310 310 310 309 309 308 308 307 307 308 309 312 316 313 314 314 317 319 322 320 320 319 323 321 320 323 322 325 325 326 329 329 332 333 332 333 332 333 332 331 332 331 332 331 332 334 335 337
302 302 303 304 304 306 309 309 309 308 308 308 307 307 307 307 308 310 313 311 312 314 316 320 322 322 319 321 325 322 323 323 324 324 323 325 327 329 334 332 331 333 332 334 332 330 331 331 332 332 333 334 335 337
301 302 303 304 304 307 306 306 306 307 308 307 307 307 307 309 311 315 312 311 310 312 320 320 323 323 318 320 320 323 325 325 325 326 327 326 329 335 333 336 332 332 334 334 333 330 332 332 333 333 333 333 334 335
301 302 303 304 304 307 305 304 304 305 306 306 308 311 313 316 313 312 313 315 311 311 312 317 319 321 319 321 321 324 323 328 330 327 324 326 335 333 334 332 333 334 333 333 333 331 332 333 333 333 331 333 334 335
301 302 304 304 304 305 304 303 303 305 306 308 310 313 313 314 316 318 320 321 318 319 318 320 320 321 320 320 322 323 328 327 326 326 325 330 336 334 332 330 334 333 333 334 332 331 331 333 333 332 331 331 332 333
301 303 304 304 304 304 304 303 303 306 309 308 308 308 311 317 319 320 321 322 323 322 322 323 321 320 321 319 323 323 329 330 329 327 327 330 333 338 334 335 334 334 331 333 332 331 329 331 332 332 332 331 331 331
301 305 305 304 303 303 303 303 303 305 306 309 310 315 318 318 320 321 321 326 325 323 324 323 324 323 321 320 322 324 331 331 331 333 329 336 343 339 338 335 335 334 331 331 331 332 330 330 330 331 332 330 330 330
303 305 303 303 302 302 302 303 305 306 307 313 315 319 319 321 321 321 321 324 324 325 325 323 323 324 324 324 325 329 331 331 332 331 330 339 341 340 339 337 336 332 330 330 332 330 331 331 331 330 330 330 330 332
304 303 302 303 303 303 304 305 305 307 311 313 316 321 319 318 318 321 320 321 325 323 324 324 326 325 325 325 326 327 331 333 333 333 337 338 339 340 339 336 334 334 333 330 332 332 331 331 332 331 330 331 331 332
303 303 305 305 304 304 305 305 307 309 311 314 315 318 319 321 321 321 321 322 322 323 326 326 328 327 327 327 329 330 330 331 335 336 340 339 339 339 339 339 339 337 335 333 333 331 331 331 332 332 332 332 332 332
303 307 306 305 304 305 305 308 309 311 312 314 316 316 317 317 320 321 321 322 321 322 326 326 328 329 328 329 329 327 333 334 332 333 334 334 336 336 335 335 335 337 338 338 336 334 334 333 333 334 336 334 333 333
307 307 307 306 306 306 307 306 311 313 314 315 316 316 317 317 319 319 319 319 321 322 323 325 323 328 329 329 330 328 330 331 333 332 332 332 333 333 332 334 332 332 333 332 332 334 335 334 334 335 336 335 333 332
307 307 307 305 307 309 311 311 312 315 315 315 316 317 317 317 318 318 318 320 320 321 322 322 326 328 328 324 325 328 329 331 330 332 332 330 330 332 331 331 330 330 329 328 328 328 330 331 331 331 331 332 332 330
305 307 306 306 306 309 313 314 313 314 316 316 317 317 318 318 318 318 319 319 322 321 323 322 322 321 330 328 328 329 327 328 330 329 329 328 326 329 330 327 328 328 327 327 326 324 326 326 326 326 326 326 327 327
307 307 307 307 309 309 313 315 317 317 319 321 320 321 321 319 319 320 320 319 320 321 322 321 321 321 323 324 323 323 326 325 324 327 327 329 328 327 327 326 325 325 325 325 325 325 325 326 325 325 324 324 325 327
310 308 310 309 311 312 314 313 315 316 317 318 318 318 319 320 322 324 321 322 322 321 322 325 325 324 324 324 323 324 322 323 323 323 321 321 325 328 327 325 324 326 326 326 325 324 324 325 326 325 324 325 325 326
308 309 311 311 312 314 314 314 317 317 319 317 318 321 322 323 322 323 325 324 324 326 324 325 326 325 327 326 326 324 323 324 325 325 323 323 324 324 324 324 324 325 325 324 326 324 324 323 324 325 325 324 325 327
308 311 312 314 314 316 314 316 315 316 319 318 319 320 320 322 322 321 321 323 325 325 325 325 326 328 329 328 324 325 324 322 322 321 322 322 323 323 323 323 322 322 324 323 324 323 323 323 323 324 324 325 326 326
313 310 314 314 314 316 317 317 318 317 318 317 317 319 321 321 322 321 323 324 321 321 323 325 328 328 328 326 326 323 322 321 321 320 319 320 321 321 321 322 325 325 325 325 325 325 325 324 325 325 325 326 326 328
313 312 312 314 316 316 316 319 317 317 318 319 320 322 322 324 325 324 323 323 324 324 325 326 326 328 328 327 329 329 325 322 322 323 324 323 322 323 324 327 327 326 324 325 324 323 322 322 323 323 322 323 323 324
311 312 313 313 314 315 317 318 317 318 319 323 324 325 325 325 325 324 325 325 326 325 325 322 325 326 326 326 328 328 328 326 326 324 325 324 324 324 324 324 324 323 322 322 322 321 321 320 319 319 320 320 320 321
311 312 314 314 315 315 317 318 319 320 321 322 323 324 325 323 324 325 324 324 325 322 321 320 320 321 322 323 325 326 326 325 324 323 324 323 321 320 318 317 318 319 320 319 318 318 317 318 318 317 317 316 315 317
313 313 314 315 316 316 317 318 319 320 321 322 326 327 324 324 321 322 323 322 323 323 319 318 319 319 321 322 322 324 324 324 323 324 321 321 321 319 319 319 318 317 316 317 318 317 317 316 316 315 315 315 314 314
313 313 314 315 317 318 319 318 320 321 322 323 325 325 325 325 323 322 321 322 323 319 320 318 317 318 319 321 322 323 323 322 321 318 319 320 319 318 318 318 319 319 318 318 319 318 316 317 315 316 317 317 317 317
313 314 315 317 320 321 322 324 323 323 323 324 325 324 324 323 321 322 320 320 320 320 320 319 317 316 318 319 320 322 322 320 319 318 318 318 318 317 317 317 317 317 318 319 319 319 319 319 318 318 318 318 319 319
313 315 317 321 322 321 322 324 324 325 325 326 326 324 325 322 320 320 320 318 317 318 318 319 318 317 317 317 318 318 318 318 317 318 317 317 318 318 318 317 317 317 317 318 318 318 317 318 319 319 318 318 318 318
314 316 318 320 322 323 324 325 325 325 325 324 323 324 319 319 319 318 317 316 317 317 318 319 319 319 318 317 317 317 317 317 315 316 316 315 315 315 318 318 318 318 318 318 317 318 317 317 317 317 317 317 317 317